Alpena, MI

9:19 PM EDT on August 19, 2019 (GMT -0400)
Alpena County Regional

Weather History for KAPN - July, 2019

Change the Weather History Date:

Sunday, July 21, 2019

  Actual Average Record
Temperature  
Mean Temperature 72 °F 68 °F  
Max Temperature 83 °F 80 °F 96 °F (1955)
Min Temperature 60 °F 56 °F 41 °F (1960)
Degree Days  
Heating Degree Days 0 1  
Month to date heating degree days 8 31  
Since 1 June heating degree days 187 174  
Since 1 July heating degree days 8 31  
Cooling Degree Days 7 4  
Month to date cooling degree days 121 81  
Year to date cooling degree days 165 150  
Since 1 June cooling degree days 162 137  
Growing Degree Days 22 (Base 50)    
Moisture  
Dew Point 59 °F    
Average Humidity 71    
Maximum Humidity 100    
Minimum Humidity 42    
Precipitation  
Precipitation 0.00 in 0.10 in 1.68 in (1919)
Month to date precipitation 1.11 2.09  
Year to date precipitation 19.07 14.61  
Sea Level Pressure  
Sea Level Pressure 29.94 in    
Wind  
Wind Speed 8 mph (WNW)    
Max Wind Speed 17 mph    
Max Gust Speed 25 mph    
Visibility 10 miles    
Events      
T = Trace of Precipitation, MM = Missing Value Source: NWS Daily Summary

Daily Weather History Graph

Daily Weather History Graph

Search for Another Location

Airport or City:

Astronomy

Jul. 21, 2019 Rise Set
Actual Time 6:07 AM EDT 9:13 PM EDT
Civil Twilight 5:31 AM EDT 9:48 PM EDT
Nautical Twilight 4:46 AM EDT 10:33 PM EDT
Astronomical Twilight 3:51 AM EDT 11:28 PM EDT
Moon 11:56 PM EDT (7/21) 10:36 AM EDT (7/21)
Length of Visible Light 16h 16m
Length of Day
15h 06m
Waning Gibbous, 80% of the Moon is Illuminated
Jul 21
Waning Gibbous
Jul 24
Last Quarter
Jul 31
New
Aug 7
First Quarter
Aug 15
Full

Hourly Weather History & Observations

Time (EDT) Temp. Heat Index Dew Point Humidity Pressure Visibility Wind Dir Wind Speed Gust Speed Precip Events Conditions
12:54 AM 68.0 °F - 64.9 °F 90% 29.86 in 10.0 mi West 4.6 mph - N/A   Clear
1:54 AM 66.0 °F - 64.0 °F 93% 29.89 in 10.0 mi NW 6.9 mph - N/A   Clear
2:54 AM 64.9 °F - 63.0 °F 93% 29.89 in 10.0 mi WSW 3.5 mph - N/A   Clear
3:23 AM 64.9 °F - 63.0 °F 93% 29.90 in 10.0 mi Calm Calm - N/A   Scattered Clouds
3:32 AM 64.9 °F - 63.0 °F 93% 29.91 in 7.0 mi West 4.6 mph - N/A   Mostly Cloudy
3:54 AM 64.9 °F - 63.0 °F 93% 29.91 in 10.0 mi Calm Calm - N/A   Mostly Cloudy
4:03 AM 64.9 °F - 63.0 °F 93% 29.91 in 10.0 mi West 3.5 mph - N/A   Scattered Clouds
4:54 AM 64.0 °F - 63.0 °F 96% 29.91 in 10.0 mi Variable 3.5 mph - N/A   Partly Cloudy
5:07 AM 64.0 °F - 63.0 °F 96% 29.91 in 10.0 mi Calm Calm - N/A   Mostly Cloudy
5:15 AM 64.0 °F - 62.1 °F 93% 29.91 in 10.0 mi Calm Calm - N/A   Scattered Clouds
5:54 AM 63.0 °F - 61.0 °F 93% 29.92 in 7.0 mi West 3.5 mph - N/A   Partly Cloudy
6:54 AM 63.0 °F - 62.1 °F 97% 29.93 in 10.0 mi WSW 4.6 mph - N/A   Clear
7:54 AM 66.0 °F - 62.1 °F 87% 29.94 in 10.0 mi WSW 3.5 mph - N/A   Clear
8:54 AM 69.1 °F - 61.0 °F 75% 29.94 in 10.0 mi West 5.8 mph - N/A   Clear
9:54 AM 72.0 °F - 60.1 °F 66% 29.94 in 10.0 mi Variable 5.8 mph - N/A   Clear
10:54 AM 73.9 °F - 61.0 °F 64% 29.95 in 10.0 mi WNW 6.9 mph - N/A   Clear
11:54 AM 77.0 °F - 60.1 °F 56% 29.95 in 10.0 mi West 8.1 mph - N/A   Clear
12:54 PM 79.0 °F - 59.0 °F 50% 29.95 in 10.0 mi West 5.8 mph - N/A   Scattered Clouds
1:54 PM 80.1 °F 80.9 °F 60.1 °F 50% 29.95 in 10.0 mi WNW 8.1 mph - N/A   Scattered Clouds
2:54 PM 82.0 °F 81.7 °F 57.0 °F 42% 29.94 in 10.0 mi NW 9.2 mph 19.6 mph N/A   Scattered Clouds
3:54 PM 81.0 °F 81.0 °F 57.0 °F 44% 29.95 in 10.0 mi North 12.7 mph 19.6 mph N/A   Mostly Cloudy
4:54 PM 81.0 °F 80.8 °F 55.9 °F 42% 29.95 in 10.0 mi NNW 13.8 mph - N/A   Scattered Clouds
5:54 PM 79.0 °F - 55.0 °F 44% 29.95 in 10.0 mi North 13.8 mph - N/A   Clear
6:54 PM 77.0 °F - 55.9 °F 48% 29.96 in 10.0 mi NNW 12.7 mph - N/A   Clear
7:54 PM 73.9 °F - 54.0 °F 50% 29.97 in 10.0 mi NNW 13.8 mph 24.2 mph N/A   Clear
8:54 PM 69.1 °F - 53.1 °F 57% 29.98 in 10.0 mi NNW 16.1 mph 24.2 mph N/A   Clear
9:54 PM 66.0 °F - 53.1 °F 63% 30.00 in 10.0 mi NNW 10.4 mph - N/A   Clear
10:54 PM 64.9 °F - 50.0 °F 58% 30.01 in 10.0 mi NNW 8.1 mph - N/A   Clear
11:54 PM 62.1 °F - 50.0 °F 65% 30.01 in 10.0 mi NW 5.8 mph - N/A   Clear